| time (UTC) | temp C | wind direction | speed KPH | gust KPH | rain 1hr cm | rain 24hr cm | rain mn cm | humidity % | barometer mb |
| 20260505081535 | 15 | 0.0 | 0.0 | 0.00 | 0.00 | 0.00 | 87 | 1010.3 | |
| 20260505080515 | 15 | 299 | 0.0 | 1.6 | 0.00 | 0.00 | 0.00 | 86 | 1010.4 |
| 20260505075515 | 15 | 270 | 0.0 | 3.2 | 0.00 | 0.00 | 0.00 | 86 | 1010.4 |
| 20260505074515 | 15 | 215 | 1.6 | 11.3 | 0.00 | 0.00 | 0.00 | 86 | 1010.3 |
| 20260505073515 | 15 | 209 | 0.0 | 3.2 | 0.00 | 0.00 | 0.00 | 86 | 1010.2 |
| 20260505072515 | 15 | 134 | 1.6 | 4.8 | 0.00 | 0.00 | 0.00 | 87 | 1010.2 |
| 20260505071515 | 15 | 0.0 | 0.0 | 0.00 | 0.00 | 0.00 | 88 | 1010.1 | |
| 20260505070515 | 15 | 171 | 1.6 | 11.3 | 0.00 | 0.00 | 0.00 | 90 | 1010.1 |
| 20260505065515 | 15 | 182 | 1.6 | 11.3 | 0.00 | 0.00 | 0.00 | 94 | 1010.1 |
| 20260505064515 | 15 | 0.0 | 0.0 | 0.00 | 0.00 | 0.00 | 92 | 1010.2 | |
| 20260505063515 | 15 | 0.0 | 0.0 | 0.00 | 0.00 | 0.00 | 92 | 1010.1 | |
| 20260505062515 | 15 | 0.0 | 0.0 | 0.00 | 0.00 | 0.00 | 92 | 1010.1 | |
| 20260505061515 | 15 | 0.0 | 0.0 | 0.00 | 0.00 | 0.00 | 90 | 1010.2 | |
| 20260505060535 | 15 | 0.0 | 0.0 | 0.00 | 0.00 | 0.00 | 88 | 1010.1 | |
| 20260505055515 | 15 | 0.0 | 0.0 | 0.00 | 0.00 | 0.00 | 87 | 1010.1 | |
| 20260505054536 | 16 | 0.0 | 0.0 | 0.00 | 0.00 | 0.00 | 86 | 1010.1 | |
| 20260505053515 | 16 | 0.0 | 0.0 | 0.00 | 0.00 | 0.00 | 86 | 1010.3 | |
| 20260505052516 | 16 | 0.0 | 0.0 | 0.00 | 0.00 | 0.00 | 85 | 1010.2 | |
| 20260505051515 | 16 | 0.0 | 0.0 | 0.00 | 0.00 | 0.00 | 85 | 1010.2 | |
| 20260505050515 | 16 | 0.0 | 0.0 | 0.00 | 0.00 | 0.00 | 84 | 1010.2 | |
| 20260505041515 | 16 | 174 | 1.6 | 6.4 | 0.00 | 0.00 | 0.00 | 81 | 1010.0 |
| 20260505040515 | 16 | 153 | 1.6 | 4.8 | 0.00 | 0.00 | 0.00 | 81 | 1010.0 |
| 20260505035515 | 16 | 180 | 1.6 | 8.0 | 0.00 | 0.00 | 0.00 | 80 | 1009.9 |
| 20260505034515 | 16 | 126 | 1.6 | 4.8 | 0.00 | 0.00 | 0.00 | 77 | 1009.9 |
| 20260505033515 | 16 | 171 | 3.2 | 8.0 | 0.00 | 0.00 | 0.00 | 76 | 1009.9 |
| 20260505032515 | 17 | 168 | 1.6 | 4.8 | 0.00 | 0.00 | 0.00 | 73 | 1010.0 |
| 20260505031515 | 17 | 215 | 1.6 | 6.4 | 0.00 | 0.00 | 0.00 | 72 | 1009.9 |
| 20260505030515 | 17 | 189 | 1.6 | 8.0 | 0.00 | 0.00 | 0.00 | 71 | 1009.9 |
| 20260505025515 | 16 | 184 | 3.2 | 14.5 | 0.00 | 0.00 | 0.00 | 72 | 1009.9 |
| 20260505024535 | 16 | 187 | 0.0 | 8.0 | 0.00 | 0.00 | 0.00 | 72 | 1009.8 |
| 20260505023516 | 16 | 164 | 0.0 | 9.7 | 0.00 | 0.00 | 0.00 | 73 | 1009.9 |
| 20260505022515 | 17 | 0.0 | 0.0 | 0.00 | 0.00 | 0.00 | 70 | 1009.8 | |
| 20260505021515 | 17 | 165 | 0.0 | 1.6 | 0.00 | 0.00 | 0.00 | 69 | 1009.9 |
| 20260505020515 | 17 | 175 | 0.0 | 3.2 | 0.00 | 0.00 | 0.00 | 68 | 1009.8 |
| 20260505015535 | 17 | 179 | 0.0 | 4.8 | 0.00 | 0.00 | 0.00 | 67 | 1009.8 |
| 20260505014535 | 17 | 188 | 1.6 | 8.0 | 0.00 | 0.00 | 0.00 | 67 | 1009.8 |
| 20260505013515 | 17 | 167 | 3.2 | 12.9 | 0.00 | 0.00 | 0.00 | 66 | 1009.6 |
| 20260505012515 | 18 | 210 | 1.6 | 9.7 | 0.00 | 0.00 | 0.00 | 65 | 1009.6 |
| 20260505011515 | 18 | 191 | 1.6 | 12.9 | 0.00 | 0.00 | 0.00 | 64 | 1009.4 |
| 20260505010515 | 18 | 217 | 3.2 | 12.9 | 0.00 | 0.00 | 0.00 | 62 | 1009.4 |
| 20260505005515 | 18 | 197 | 1.6 | 9.7 | 0.00 | 0.00 | 0.00 | 61 | 1009.4 |
| 20260505004515 | 18 | 187 | 1.6 | 9.7 | 0.00 | 0.00 | 0.00 | 60 | 1009.4 |
| 20260505003515 | 18 | 210 | 1.6 | 6.4 | 0.00 | 0.00 | 0.00 | 60 | 1009.4 |
| 20260505002515 | 18 | 190 | 3.2 | 12.9 | 0.00 | 0.00 | 0.00 | 59 | 1009.4 |
| 20260505001515 | 18 | 175 | 3.2 | 11.3 | 0.00 | 0.00 | 0.00 | 59 | 1009.2 |
| 20260505000515 | 18 | 170 | 3.2 | 11.3 | 0.00 | 0.00 | 0.00 | 59 | 1009.2 |
| 20260504235515 | 19 | 181 | 3.2 | 9.7 | 0.00 | 0.00 | 0.00 | 59 | 1009.3 |
| 20260504234515 | 19 | 172 | 1.6 | 8.0 | 0.00 | 0.00 | 0.00 | 57 | 1009.2 |
| 20260504233535 | 20 | 186 | 1.6 | 9.7 | 0.00 | 0.00 | 0.00 | 56 | 1009.2 |
| 20260504232515 | 20 | 183 | 3.2 | 8.0 | 0.00 | 0.00 | 0.00 | 53 | 1009.2 |
| 20260504231515 | 20 | 197 | 3.2 | 9.7 | 0.00 | 0.00 | 0.00 | 51 | 1009.2 |
| 20260504230515 | 20 | 192 | 4.8 | 14.5 | 0.00 | 0.00 | 0.00 | 50 | 1009.2 |
| 20260504225515 | 21 | 164 | 3.2 | 12.9 | 0.00 | 0.00 | 0.00 | 48 | 1009.2 |
| 20260504224515 | 21 | 183 | 4.8 | 14.5 | 0.00 | 0.00 | 0.00 | 45 | 1009.1 |
| 20260504223515 | 21 | 193 | 6.4 | 14.5 | 0.00 | 0.00 | 0.00 | 43 | 1009.1 |
| 20260504222515 | 21 | 183 | 4.8 | 16.1 | 0.00 | 0.00 | 0.00 | 42 | 1009.1 |
| 20260504221515 | 21 | 201 | 6.4 | 14.5 | 0.00 | 0.00 | 0.00 | 41 | 1009.1 |
| 20260504220515 | 22 | 189 | 8.0 | 25.7 | 0.00 | 0.00 | 0.00 | 40 | 1009.1 |
| 20260504215515 | 22 | 183 | 6.4 | 17.7 | 0.00 | 0.00 | 0.00 | 39 | 1009.1 |
| 20260504214515 | 22 | 183 | 8.0 | 17.7 | 0.00 | 0.00 | 0.00 | 38 | 1009.2 |
| 20260504213516 | 22 | 188 | 8.0 | 16.1 | 0.00 | 0.00 | 0.00 | 38 | 1009.2 |
| 20260504212515 | 22 | 198 | 4.8 | 16.1 | 0.00 | 0.00 | 0.00 | 38 | 1009.1 |
| 20260504211515 | 22 | 212 | 4.8 | 9.7 | 0.00 | 0.00 | 0.00 | 38 | 1009.2 |
| 20260504210515 | 22 | 201 | 4.8 | 14.5 | 0.00 | 0.00 | 0.00 | 37 | 1009.2 |
| 20260504205515 | 22 | 186 | 6.4 | 16.1 | 0.00 | 0.00 | 0.00 | 37 | 1009.3 |
| 20260504204515 | 23 | 167 | 3.2 | 8.0 | 0.00 | 0.00 | 0.00 | 38 | 1009.4 |
| 20260504203515 | 23 | 194 | 4.8 | 12.9 | 0.00 | 0.00 | 0.00 | 37 | 1009.4 |
| 20260504202515 | 23 | 174 | 4.8 | 24.1 | 0.00 | 0.00 | 0.00 | 36 | 1009.6 |
| 20260504201515 | 23 | 216 | 3.2 | 16.1 | 0.00 | 0.00 | 0.00 | 36 | 1009.8 |
| 20260504200516 | 23 | 200 | 6.4 | 17.7 | 0.00 | 0.00 | 0.00 | 36 | 1010.0 |
| 20260504195515 | 23 | 188 | 8.0 | 19.3 | 0.00 | 0.00 | 0.00 | 36 | 1010.1 |
| 20260504194515 | 23 | 174 | 6.4 | 16.1 | 0.00 | 0.00 | 0.00 | 36 | 1010.3 |
| 20260504193515 | 22 | 179 | 3.2 | 12.9 | 0.00 | 0.00 | 0.00 | 36 | 1010.5 |
| 20260504192516 | 23 | 178 | 6.4 | 17.7 | 0.00 | 0.00 | 0.00 | 36 | 1010.7 |
| 20260504191515 | 22 | 204 | 6.4 | 19.3 | 0.00 | 0.00 | 0.00 | 37 | 1010.8 |
| 20260504190556 | 22 | 201 | 8.0 | 16.1 | 0.00 | 0.00 | 0.00 | 37 | 1010.9 |
| 20260504185515 | 22 | 181 | 6.4 | 17.7 | 0.00 | 0.00 | 0.00 | 38 | 1011.1 |
| 20260504184515 | 22 | 197 | 8.0 | 20.9 | 0.00 | 0.00 | 0.00 | 37 | 1011.2 |
| 20260504183515 | 22 | 141 | 3.2 | 11.3 | 0.00 | 0.00 | 0.00 | 38 | 1011.2 |
| 20260504182515 | 22 | 194 | 8.0 | 22.5 | 0.00 | 0.00 | 0.00 | 36 | 1011.2 |
| 20260504181515 | 22 | 185 | 6.4 | 16.1 | 0.00 | 0.00 | 0.00 | 37 | 1011.3 |
| 20260504180515 | 22 | 199 | 4.8 | 14.5 | 0.00 | 0.00 | 0.00 | 37 | 1011.5 |
| 20260504175516 | 22 | 201 | 3.2 | 11.3 | 0.00 | 0.00 | 0.00 | 37 | 1011.6 |
| 20260504174515 | 22 | 184 | 4.8 | 14.5 | 0.00 | 0.00 | 0.00 | 40 | 1011.8 |
| 20260504173516 | 22 | 178 | 3.2 | 12.9 | 0.00 | 0.00 | 0.00 | 39 | 1011.9 |
| 20260504172515 | 22 | 161 | 1.6 | 11.3 | 0.00 | 0.00 | 0.00 | 42 | 1012.0 |
| 20260504171535 | 21 | 196 | 6.4 | 24.1 | 0.00 | 0.00 | 0.00 | 40 | 1012.0 |
| 20260504170555 | 21 | 195 | 4.8 | 14.5 | 0.00 | 0.00 | 0.00 | 40 | 1012.3 |
| 20260504150515 | 20 | 185 | 3.2 | 12.9 | 0.00 | 0.00 | 0.00 | 43 | 1013.7 |
| 20260504140515 | 19 | 189 | 3.2 | 8.0 | 0.00 | 0.00 | 0.00 | 46 | 1013.9 |
| 20260504130515 | 16 | 179 | 1.6 | 9.7 | 0.00 | 0.00 | 0.00 | 56 | 1014.3 |
| 20260504110515 | 7 | 0.0 | 0.0 | 0.00 | 0.00 | 0.00 | 95 | 1014.7 | |
| 20260504100515 | 6 | 0.0 | 0.0 | 0.00 | 0.00 | 0.00 | 96 | 1014.7 |